STARLINK-34879, 65377

Orbit data source: Space-Track

STARLINK-34879, 65377 is a payload satellite owned by SpaceX/Seattle (US) in LEO that was launched on Thu, 28 Aug 2025 UTC via an FALCON 9 launch vehicle from the Air Force Eastern Test Range (AFETR). Payload-class satellites include a variety of spacecraft equipped with specific instruments for various scientific and technological missions. These include communications satellites like Starlink; space stations such as the ISS; scientific satellites like the Hubble; Earth observation satellites from companies like Planet Labs, Umbra, and HawkEye 360; GPS; miniature CubeSats for education and research; and military/defense satellites.

Loading next visibility...
Identifier
65377, 2025-190AC
Orbit
LEO
Country
Flag of USUS
Related business
Manufacturer
SpaceX/Seattle
Mission
Operational Commercial Communications
Bus & Motor
STARLINK V2MO, Unknown motor
Mass
575 kg wet, ~530 kg dry
Launch date (UTC)
2025-08-28 (7 months ago)
Launch vehicle
FALCON 9
Launch site
Air Force Eastern Test Range (AFETR)
Object type
Payload
Rocket body
Debris
Shape & HBR
Box + 2 Pan, 17.7 m
Radar Cross Section
36.964 m², Large (>1 m²)

Expand to show TLE details & history
Last TLE update: 11 hours ago

TLE from 11 hours ago
0 STARLINK-34879
1 65377U 25190AC  26094.19537576  .00039489  00000-0  13383-2 0  9992
2 65377  53.1616  49.4548 0001346 113.3255 246.7888 15.30200989 33668
Epoch: 2026-04-04T04:41Z
TLE epoch observation values (Epoch: 2026-04-04T04:41:20.465Z)
Latitude
0.00001°
Longitude
146.6009°
Altitude
476.476 km
Speed
7.629 km/s
True Right ascension
03h 17m 49s
True Declination
0° 00' 00"
Sunlit
Object was in daylight at epoch
Visualization orbit readout
Latitude
Unknown
Longitude
Unknown
Altitude
Unknown
Speed
Unknown
Apparent Right ascension
Unknown
Apparent Declination
Unknown
Sunlit
N/A
Visualization observer readout
Local Sidereal Time
21:07:32
Azimuth
Unknown
Elevation
Unknown
Doppler factor
Unknown
Orbital elements
Apogee altitude
476.391 km
Perigee altitude
474.546 km
Semi-major axis
6,853.605 km
Eccentricity
0.00013
Inclination
53.1616°
RAAN
49.4548°
Arg. of periapsis
113.3255°
True anomaly
246.77463°
Mean anomaly
246.7888°
Eccentric anomaly
246.78171°
Mean motion
3.82529 °/min
Orbital period
94.11 mins
BSTAR
0.0013383
Loading maneuver chart data...
Computing Atmospheric mass density...
Loading historical data...
Loading historical data...
Loading historical data...
Loading historical data...
Loading historical data...
Loading historical data...
Loading historical data...

Documentation

Showing up to 5 results
|